{"data":{"norad_id":61721,"intl_designator":"2024-196Q","name":"STARLINK-32469","alt_names":[],"object_type":"PAYLOAD","status":"ACTIVE","operator":null,"country":"US","launch_date":"2024-10-30","launch_site_code":"AFETR","launch_vehicle":null,"mission":null,"orbit_class":"UNKNOWN","rcs_meters":null,"size_class":null,"mass_kg":null,"dimensions":null,"purposes":["comms"],"wikipedia_slug":null,"has_3d_model":false,"image_url":null,"decayed_at":null,"tle_current":{"epoch":"2026-09-20T23:55:14.144736Z","epoch_age_seconds":145992,"freshness":"FRESH","line1":"1 61721U 24196Q   26263.99669149  .00000480  00000+0  25335-4 0  9994","line2":"2 61721  53.1579 271.6995 0001287  84.5622 275.5527 15.34391655107095","mean_motion":15.34391655,"eccentricity":0.0001287,"inclination_deg":53.1579,"raan_deg":271.6995,"arg_perigee_deg":84.5622,"mean_anomaly_deg":275.5527,"bstar":2.5335e-5,"rev_number":10709,"period_min":93.848268485271,"perigee_km":461.84762408706,"apogee_km":463.60846274924,"semimajor_km":6840.8650434181,"source":"CELESTRAK","updated_at":"2026-09-22T09:00:49.437641Z"}}}